"read_dt","SO2 (ppb)","flags","PMT voltage (V)","lamp voltage (V)","lamp intensity (Hz)","internal temp (C)","react chamber temp (C)","sample flow (l/min)","pres (mmHg)","SO2 bkg (ppb)","SO2 coefficient"
2016-03-02 00:00:00,1854E-3,5C000400,-0724,0837,12133,026.8,045.4,0.258,757.3,01.16,0.508
2016-03-02 00:01:00,1800E-3,5C000400,-0724,0836,11835,026.8,045.4,0.257,757.3,01.16,0.508
2016-03-02 00:02:00,1788E-3,5C000400,-0724,0837,12127,026.8,045.4,0.258,757.2,01.16,0.508
2016-03-02 00:03:00,1767E-3,5C000400,-0724,0837,11971,026.8,045.4,0.258,757.2,01.16,0.508
2016-03-02 00:04:00,1780E-3,5C000400,-0724,0837,12279,026.8,045.4,0.257,757.2,01.16,0.508
2016-03-02 00:05:00,1687E-3,5C000400,-0724,0837,12091,026.8,045.4,0.258,757.3,01.16,0.508
2016-03-02 00:06:00,1772E-3,5C000400,-0724,0837,12229,026.8,045.4,0.258,757.3,01.16,0.508
2016-03-02 00:07:00,1845E-3,5C000400,-0724,0837,12199,026.8,045.4,0.257,757.3,01.16,0.508
2016-03-02 00:08:00,1813E-3,5C000400,-0724,0835,12145,026.7,045.4,0.258,757.3,01.16,0.508
2016-03-02 00:09:00,1837E-3,5C000400,-0724,0837,12047,026.8,045.4,0.258,757.3,01.16,0.508
2016-03-02 00:10:00,1762E-3,5C000400,-0724,0836,12268,026.7,045.4,0.257,757.3,01.16,0.508
2016-03-02 00:11:00,1701E-3,5C000400,-0724,0836,12198,026.8,045.4,0.258,757.3,01.16,0.508
2016-03-02 00:12:00,1854E-3,5C000400,-0724,0836,12191,026.8,045.4,0.258,757.3,01.16,0.508
2016-03-02 00:13:00,1804E-3,5C000400,-0724,0837,12003,026.8,045.4,0.258,757.3,01.16,0.508
2016-03-02 00:14:00,1743E-3,5C000400,-0724,0837,12139,026.8,045.4,0.258,757.3,01.16,0.508
2016-03-02 00:15:00,1763E-3,5C000400,-0724,0836,12176,026.8,045.4,0.257,757.3,01.16,0.508
2016-03-02 00:16:00,1776E-3,5C000400,-0724,0837,12131,026.7,045.4,0.258,757.3,01.16,0.508
2016-03-02 00:17:00,1777E-3,5C000400,-0724,0837,12134,026.8,045.4,0.257,757.3,01.16,0.508
2016-03-02 00:18:00,1816E-3,5C000400,-0724,0836,12099,026.8,045.4,0.258,757.3,01.16,0.508
2016-03-02 00:19:00,1681E-3,5C000400,-0724,0836,12085,026.7,045.4,0.257,757.3,01.16,0.508
2016-03-02 00:20:00,1779E-3,5C000400,-0724,0836,12163,026.7,045.4,0.258,757.3,01.16,0.508
2016-03-02 00:21:00,1772E-3,5C000400,-0724,0837,12136,026.7,045.4,0.257,757.3,01.16,0.508
2016-03-02 00:22:00,1750E-3,5C000400,-0724,0837,12171,026.8,045.4,0.258,757.3,01.16,0.508
2016-03-02 00:23:00,1675E-3,5C000400,-0724,0837,12253,026.7,045.4,0.257,757.3,01.16,0.508
2016-03-02 00:24:00,1766E-3,5C000400,-0724,0836,12196,026.7,045.4,0.258,757.2,01.16,0.508
2016-03-02 00:25:00,1685E-3,5C000400,-0724,0836,12169,026.7,045.4,0.257,757.2,01.16,0.508
2016-03-02 00:26:00,1716E-3,5C000400,-0724,0837,12023,026.7,045.4,0.258,757.2,01.16,0.508
2016-03-02 00:27:00,1725E-3,5C000400,-0724,0837,12013,026.7,045.4,0.257,757.2,01.16,0.508
2016-03-02 00:28:00,1692E-3,5C000400,-0724,0836,12175,026.7,045.4,0.258,757.2,01.16,0.508
2016-03-02 00:29:00,1842E-3,5C000400,-0724,0837,12077,026.7,045.4,0.258,757.2,01.16,0.508
2016-03-02 00:30:00,1861E-3,5C000400,-0724,0837,12130,026.7,045.4,0.258,757.2,01.16,0.508
2016-03-02 00:31:00,1842E-3,5C000400,-0724,0836,12106,026.7,045.4,0.258,757.2,01.16,0.508
2016-03-02 00:32:00,1799E-3,5C000400,-0724,0836,12079,026.7,045.4,0.258,757.2,01.16,0.508
2016-03-02 00:33:00,1829E-3,5C000400,-0724,0836,12245,026.7,045.4,0.258,757.2,01.16,0.508
2016-03-02 00:34:00,1667E-3,5C000400,-0724,0836,12095,026.7,045.4,0.258,757.2,01.16,0.508
2016-03-02 00:35:00,1652E-3,5C000400,-0724,0836,12088,026.7,045.4,0.258,757.2,01.16,0.508
2016-03-02 00:36:00,1717E-3,5C000400,-0724,0836,12148,026.7,045.4,0.258,757.2,01.16,0.508
2016-03-02 00:37:00,1862E-3,5C000400,-0724,0837,12173,026.7,045.4,0.258,757.2,01.16,0.508
2016-03-02 00:38:00,1693E-3,5C000400,-0724,0837,12048,026.7,045.4,0.258,757.2,01.16,0.508
2016-03-02 00:39:00,1731E-3,5C000400,-0724,0836,12160,026.7,045.4,0.258,757.2,01.16,0.508
2016-03-02 00:40:00,1828E-3,5C000400,-0724,0838,12166,026.7,045.4,0.258,757.2,01.16,0.508
2016-03-02 00:41:00,1688E-3,5C000400,-0724,0836,12149,026.7,045.4,0.258,757.2,01.16,0.508
2016-03-02 00:42:00,1757E-3,5C000400,-0724,0836,12123,026.7,045.4,0.258,757.1,01.16,0.508
2016-03-02 00:43:00,1756E-3,5C000400,-0724,0836,12143,026.7,045.4,0.258,757.1,01.16,0.508
2016-03-02 00:44:00,1727E-3,5C000400,-0724,0837,12066,026.7,045.4,0.258,757.1,01.16,0.508
2016-03-02 00:45:00,1813E-3,5C000400,-0724,0837,12146,026.7,045.4,0.257,757.1,01.16,0.508
2016-03-02 00:46:00,1866E-3,5C000400,-0724,0837,12312,026.7,045.4,0.258,757.2,01.16,0.508
2016-03-02 00:47:00,1779E-3,5C000400,-0724,0837,12032,026.7,045.4,0.258,757.2,01.16,0.508
2016-03-02 00:48:00,1711E-3,5C000400,-0724,0837,12177,026.7,045.4,0.258,757.2,01.16,0.508
2016-03-02 00:49:00,1870E-3,5C000400,-0724,0836,12092,026.7,045.4,0.258,757.2,01.16,0.508
2016-03-02 00:50:00,1722E-3,5C000400,-0724,0837,12245,026.7,045.4,0.257,757.2,01.16,0.508
2016-03-02 00:51:00,1851E-3,5C000400,-0724,0836,12154,026.7,045.4,0.258,757.2,01.16,0.508
2016-03-02 00:52:00,1829E-3,5C000400,-0724,0836,12095,026.7,045.4,0.258,757.2,01.16,0.508
2016-03-02 00:53:00,1786E-3,5C000400,-0724,0837,12115,026.7,045.4,0.258,757.2,01.16,0.508
2016-03-02 00:54:00,1732E-3,5C000400,-0724,0836,12105,026.7,045.4,0.258,757.2,01.16,0.508
2016-03-02 00:55:00,1781E-3,5C000400,-0724,0837,12104,026.7,045.4,0.258,757.2,01.16,0.508
2016-03-02 00:56:00,1851E-3,5C000400,-0724,0836,12257,026.7,045.4,0.258,757.2,01.16,0.508
2016-03-02 00:57:00,1831E-3,5C000400,-0724,0837,12177,026.7,045.4,0.258,757.2,01.16,0.508
2016-03-02 00:58:00,1759E-3,5C000400,-0724,0836,12144,026.7,045.4,0.257,757.2,01.16,0.508
2016-03-02 00:59:00,1728E-3,5C000400,-0724,0837,12038,026.7,045.4,0.258,757.2,01.16,0.508
2016-03-02 01:00:00,1799E-3,5C000400,-0724,0837,12095,026.7,045.4,0.258,757.1,01.16,0.508
2016-03-02 01:01:00,1650E-3,5C000400,-0724,0836,12251,026.7,045.4,0.258,757.1,01.16,0.508
2016-03-02 01:02:00,1707E-3,5C000400,-0724,0837,12122,026.7,045.4,0.258,757.1,01.16,0.508
2016-03-02 01:03:00,1772E-3,5C000400,-0724,0837,12256,026.7,045.4,0.258,757.2,01.16,0.508
2016-03-02 01:04:00,1776E-3,5C000400,-0724,0836,12067,026.7,045.4,0.258,757.1,01.16,0.508
2016-03-02 01:05:00,1785E-3,5C000400,-0724,0836,12002,026.7,045.4,0.258,757.1,01.16,0.508
2016-03-02 01:06:00,1781E-3,5C000400,-0724,0836,12135,026.7,045.4,0.258,757.1,01.16,0.508
2016-03-02 01:07:00,1748E-3,5C000400,-0724,0837,12214,026.7,045.4,0.258,757.1,01.16,0.508
2016-03-02 01:08:00,1709E-3,5C000400,-0724,0836,12036,026.7,045.4,0.258,757.1,01.16,0.508
2016-03-02 01:09:00,1638E-3,5C000400,-0724,0836,12201,026.7,045.4,0.258,757.1,01.16,0.508
2016-03-02 01:10:00,1803E-3,5C000400,-0724,0836,12080,026.7,045.4,0.258,757.1,01.16,0.508
2016-03-02 01:11:00,1664E-3,5C000400,-0724,0836,12097,026.7,045.4,0.258,757.1,01.16,0.508
2016-03-02 01:12:00,1906E-3,5C000400,-0724,0837,12193,026.7,045.4,0.258,757.1,01.16,0.508
2016-03-02 01:13:00,1714E-3,5C000400,-0724,0836,12114,026.7,045.4,0.258,757.1,01.16,0.508
2016-03-02 01:14:00,1799E-3,5C000400,-0724,0837,12149,026.7,045.4,0.257,757.1,01.16,0.508
2016-03-02 01:15:00,1774E-3,5C000400,-0724,0836,12225,026.7,045.4,0.258,757.0,01.16,0.508
2016-03-02 01:16:00,1650E-3,5C000400,-0724,0836,12223,026.7,045.4,0.258,757.0,01.16,0.508
2016-03-02 01:17:00,1752E-3,5C000400,-0724,0836,11940,026.7,045.4,0.257,757.0,01.16,0.508
2016-03-02 01:18:00,1740E-3,5C000400,-0724,0836,12165,026.7,045.4,0.258,757.0,01.16,0.508
2016-03-02 01:19:00,1934E-3,5C000400,-0724,0836,12192,026.6,045.4,0.258,757.0,01.16,0.508
2016-03-02 01:20:00,1901E-3,5C000400,-0724,0837,12128,026.7,045.4,0.258,757.0,01.16,0.508
2016-03-02 01:21:00,1747E-3,5C000400,-0724,0836,12073,026.7,045.4,0.258,756.9,01.16,0.508
2016-03-02 01:22:00,1706E-3,5C000400,-0724,0837,12077,026.7,045.4,0.258,756.9,01.16,0.508
2016-03-02 01:23:00,1795E-3,5C000400,-0724,0836,12081,026.7,045.4,0.258,756.9,01.16,0.508
2016-03-02 01:24:00,1716E-3,5C000400,-0724,0837,12130,026.7,045.4,0.258,756.9,01.16,0.508
2016-03-02 01:25:00,1656E-3,5C000400,-0724,0836,12015,026.7,045.4,0.257,756.9,01.16,0.508
2016-03-02 01:26:00,1767E-3,5C000400,-0724,0836,12131,026.7,045.4,0.258,756.9,01.16,0.508
2016-03-02 01:27:00,1774E-3,5C000400,-0724,0836,12110,026.7,045.4,0.258,756.9,01.16,0.508
2016-03-02 01:28:00,1707E-3,5C000400,-0724,0836,12210,026.7,045.4,0.258,756.9,01.16,0.508
2016-03-02 01:29:00,1862E-3,5C000400,-0724,0837,12166,026.7,045.4,0.258,756.9,01.16,0.508
2016-03-02 01:30:00,1763E-3,5C000400,-0724,0836,12206,026.7,045.4,0.258,756.9,01.16,0.508
2016-03-02 01:31:00,1693E-3,5C000400,-0724,0837,12078,026.7,045.4,0.258,756.9,01.16,0.508
2016-03-02 01:32:00,1884E-3,5C000400,-0724,0836,12041,026.7,045.4,0.258,756.9,01.16,0.508
2016-03-02 01:33:00,1735E-3,5C000400,-0724,0836,11988,026.7,045.4,0.258,756.9,01.16,0.508
2016-03-02 01:34:00,1802E-3,5C000400,-0724,0836,12101,026.6,045.4,0.258,756.9,01.16,0.508
2016-03-02 01:35:00,1749E-3,5C000400,-0724,0836,12125,026.7,045.4,0.258,756.9,01.16,0.508
2016-03-02 01:36:00,1869E-3,5C000400,-0724,0836,12017,026.7,045.4,0.258,756.9,01.16,0.508
2016-03-02 01:37:00,1876E-3,5C000400,-0724,0836,11960,026.6,045.4,0.258,756.9,01.16,0.508
2016-03-02 01:38:00,1750E-3,5C000400,-0724,0835,12095,026.6,045.4,0.258,756.9,01.16,0.508
2016-03-02 01:39:00,1763E-3,5C000400,-0724,0836,12226,026.7,045.4,0.258,756.9,01.16,0.508
2016-03-02 01:40:00,1724E-3,5C000400,-0724,0836,11993,026.7,045.4,0.258,756.9,01.16,0.508
2016-03-02 01:41:00,1800E-3,5C000400,-0724,0836,11986,026.7,045.4,0.258,756.9,01.16,0.508
2016-03-02 01:42:00,1698E-3,5C000400,-0724,0836,12171,026.7,045.4,0.258,756.8,01.16,0.508
2016-03-02 01:43:00,1831E-3,5C000400,-0724,0836,12061,026.7,045.4,0.258,756.8,01.16,0.508
2016-03-02 01:44:00,1741E-3,5C000400,-0724,0836,12191,026.6,045.4,0.258,756.8,01.16,0.508
2016-03-02 01:45:00,1716E-3,5C000400,-0724,0836,12024,026.6,045.4,0.258,756.9,01.16,0.508
2016-03-02 01:46:00,1769E-3,5C000400,-0724,0837,12072,026.7,045.4,0.258,756.9,01.16,0.508
2016-03-02 01:47:00,1642E-3,5C000400,-0724,0836,12179,026.7,045.4,0.258,756.9,01.16,0.508
2016-03-02 01:48:00,1764E-3,5C000400,-0724,0836,12133,026.7,045.4,0.258,756.9,01.16,0.508
2016-03-02 01:49:00,1697E-3,5C000400,-0724,0836,12050,026.7,045.4,0.258,756.9,01.16,0.508
2016-03-02 01:50:00,1781E-3,5C000400,-0724,0836,12053,026.7,045.4,0.258,756.9,01.16,0.508
2016-03-02 01:51:00,1850E-3,5C000400,-0724,0837,12147,026.7,045.4,0.257,756.9,01.16,0.508
2016-03-02 01:52:00,1793E-3,5C000400,-0724,0836,12145,026.7,045.4,0.258,756.9,01.16,0.508
2016-03-02 01:53:00,1770E-3,5C000400,-0724,0837,12152,026.6,045.4,0.258,756.9,01.16,0.508
2016-03-02 01:54:00,1646E-3,5C000400,-0724,0836,11989,026.7,045.4,0.257,756.9,01.16,0.508
2016-03-02 01:55:00,1851E-3,5C000400,-0724,0836,12049,026.7,045.4,0.258,756.9,01.16,0.508
2016-03-02 01:56:00,1760E-3,5C000400,-0724,0836,12253,026.7,045.4,0.258,756.9,01.16,0.508
2016-03-02 01:57:00,1661E-3,5C000400,-0724,0836,12159,026.7,045.4,0.257,756.9,01.16,0.508
2016-03-02 01:58:00,1762E-3,5C000400,-0724,0837,11952,026.7,045.4,0.258,756.9,01.16,0.508
2016-03-02 01:59:00,1854E-3,5C000400,-0724,0836,12176,026.7,045.4,0.258,756.9,01.16,0.508
2016-03-02 02:00:00,1810E-3,5C000400,-0724,0837,12045,026.7,045.4,0.258,756.9,01.16,0.508
2016-03-02 02:01:00,1822E-3,5C000400,-0724,0837,12092,026.7,045.4,0.258,756.9,01.16,0.508
2016-03-02 02:02:00,1611E-3,5C000400,-0724,0836,12192,026.7,045.4,0.258,756.8,01.16,0.508
2016-03-02 02:03:00,1833E-3,5C000400,-0724,0836,12193,026.7,045.4,0.258,756.8,01.16,0.508
2016-03-02 02:04:00,1804E-3,5C000400,-0724,0836,12219,026.7,045.4,0.258,756.9,01.16,0.508
2016-03-02 02:05:00,1617E-3,5C000400,-0724,0836,12103,026.7,045.4,0.258,756.9,01.16,0.508
2016-03-02 02:06:00,1710E-3,5C000400,-0724,0837,12155,026.7,045.4,0.258,756.8,01.16,0.508
2016-03-02 02:07:00,1822E-3,5C000400,-0724,0836,12138,026.7,045.4,0.258,756.8,01.16,0.508
2016-03-02 02:08:00,1714E-3,5C000400,-0724,0837,12030,026.7,045.4,0.258,756.8,01.16,0.508
2016-03-02 02:09:00,1789E-3,5C000400,-0724,0837,12212,026.7,045.4,0.258,756.8,01.16,0.508
2016-03-02 02:10:00,1689E-3,5C000400,-0724,0836,12102,026.7,045.4,0.258,756.8,01.16,0.508
2016-03-02 02:11:00,1754E-3,5C000400,-0724,0837,12165,026.7,045.4,0.258,756.8,01.16,0.508
2016-03-02 02:12:00,1741E-3,5C000400,-0724,0836,12018,026.7,045.4,0.258,756.8,01.16,0.508
2016-03-02 02:13:00,1794E-3,5C000400,-0724,0836,12104,026.7,045.4,0.258,756.8,01.16,0.508
2016-03-02 02:14:00,1882E-3,5C000400,-0724,0836,12100,026.7,045.4,0.258,756.8,01.16,0.508
2016-03-02 02:15:00,1722E-3,5C000400,-0724,0837,12051,026.7,045.4,0.258,756.8,01.16,0.508
2016-03-02 02:16:00,1815E-3,5C000400,-0724,0836,12098,026.7,045.4,0.258,756.8,01.16,0.508
2016-03-02 02:17:00,1789E-3,5C000400,-0724,0836,12086,026.7,045.4,0.258,756.8,01.16,0.508
2016-03-02 02:18:00,1656E-3,5C000400,-0724,0837,12150,026.7,045.4,0.258,756.8,01.16,0.508
2016-03-02 02:19:00,1776E-3,5C000400,-0724,0836,12170,026.7,045.4,0.258,756.9,01.16,0.508
2016-03-02 02:20:00,1797E-3,5C000400,-0724,0836,12152,026.7,045.4,0.258,756.9,01.16,0.508
2016-03-02 02:21:00,1807E-3,5C000400,-0724,0837,12182,026.7,045.4,0.258,756.8,01.16,0.508
2016-03-02 02:22:00,1680E-3,5C000400,-0724,0836,12069,026.7,045.4,0.258,756.8,01.16,0.508
2016-03-02 02:23:00,1791E-3,5C000400,-0724,0838,12146,026.7,045.4,0.258,756.8,01.16,0.508
2016-03-02 02:24:00,1727E-3,5C000400,-0724,0837,12257,026.7,045.4,0.257,756.8,01.16,0.508
2016-03-02 02:25:00,1837E-3,5C000400,-0724,0837,12061,026.7,045.4,0.258,756.8,01.16,0.508
2016-03-02 02:26:00,1838E-3,5C000400,-0724,0837,12079,026.7,045.4,0.257,756.8,01.16,0.508
2016-03-02 02:27:00,1639E-3,5C000400,-0724,0837,12132,026.7,045.4,0.258,756.8,01.16,0.508
2016-03-02 02:28:00,1800E-3,5C000400,-0724,0837,12074,026.7,045.4,0.257,756.8,01.16,0.508
2016-03-02 02:29:00,1724E-3,5C000400,-0724,0837,12037,026.7,045.4,0.258,756.9,01.16,0.508
2016-03-02 02:30:00,1694E-3,5C000400,-0724,0836,11935,026.7,045.4,0.258,756.9,01.16,0.508
2016-03-02 02:31:00,1700E-3,5C000400,-0724,0837,12081,026.7,045.4,0.258,756.9,01.16,0.508
2016-03-02 02:32:00,1810E-3,5C000400,-0724,0837,12143,026.7,045.4,0.258,756.9,01.16,0.508
2016-03-02 02:33:00,1587E-3,5C000400,-0724,0837,12241,026.7,045.4,0.257,756.9,01.16,0.508
2016-03-02 02:34:00,1815E-3,5C000400,-0724,0836,12112,026.7,045.4,0.258,756.9,01.16,0.508
2016-03-02 02:35:00,1705E-3,5C000400,-0724,0837,12133,026.7,045.4,0.258,756.9,01.16,0.508
2016-03-02 02:36:00,1731E-3,5C000400,-0724,0837,12095,026.7,045.4,0.258,756.9,01.16,0.508
2016-03-02 02:37:00,1802E-3,5C000400,-0724,0836,12067,026.7,045.4,0.258,756.8,01.16,0.508
2016-03-02 02:38:00,1788E-3,5C000400,-0724,0836,12172,026.7,045.4,0.257,756.8,01.16,0.508
2016-03-02 02:39:00,1793E-3,5C000400,-0724,0837,12236,026.7,045.4,0.258,756.8,01.16,0.508
2016-03-02 02:40:00,1624E-3,5C000400,-0724,0837,12183,026.7,045.4,0.258,756.8,01.16,0.508
2016-03-02 02:41:00,1688E-3,5C000400,-0724,0837,12256,026.7,045.4,0.258,756.8,01.16,0.508
2016-03-02 02:42:00,1664E-3,5C000400,-0724,0837,12159,026.7,045.4,0.258,756.8,01.16,0.508
2016-03-02 02:43:00,1833E-3,5C000400,-0724,0836,12224,026.7,045.4,0.258,756.8,01.16,0.508
2016-03-02 02:44:00,1773E-3,5C000400,-0724,0837,12092,026.7,045.4,0.258,756.8,01.16,0.508
2016-03-02 02:45:00,1760E-3,5C000400,-0724,0837,12117,026.7,045.4,0.258,756.8,01.16,0.508
2016-03-02 02:46:00,1867E-3,5C000400,-0724,0836,12013,026.7,045.4,0.258,756.8,01.16,0.508
2016-03-02 02:47:00,1839E-3,5C000400,-0724,0836,12132,026.7,045.4,0.258,756.8,01.16,0.508
2016-03-02 02:48:00,1701E-3,5C000400,-0724,0837,12082,026.7,045.4,0.258,756.8,01.16,0.508
2016-03-02 02:49:00,1728E-3,5C000400,-0724,0837,12187,026.7,045.4,0.258,756.8,01.16,0.508
2016-03-02 02:50:00,1760E-3,5C000400,-0724,0837,12185,026.7,045.4,0.258,756.8,01.16,0.508
2016-03-02 02:51:00,1751E-3,5C000400,-0724,0836,12097,026.7,045.4,0.258,756.8,01.16,0.508
2016-03-02 02:52:00,1909E-3,5C000400,-0724,0836,12050,026.8,045.4,0.258,756.8,01.16,0.508
2016-03-02 02:53:00,1604E-3,5C000400,-0724,0836,12147,026.7,045.4,0.257,756.8,01.16,0.508
2016-03-02 02:54:00,1835E-3,5C000400,-0724,0837,12084,026.7,045.4,0.258,756.8,01.16,0.508
2016-03-02 02:55:00,1739E-3,5C000400,-0724,0836,12090,026.8,045.4,0.258,756.8,01.16,0.508
2016-03-02 02:56:00,1843E-3,5C000400,-0724,0837,12250,026.7,045.4,0.258,756.7,01.16,0.508
2016-03-02 02:57:00,1789E-3,5C000400,-0724,0836,12063,026.8,045.4,0.258,756.7,01.16,0.508
2016-03-02 02:58:00,1787E-3,5C000400,-0724,0837,12068,026.7,045.4,0.257,756.7,01.16,0.508
2016-03-02 02:59:00,1866E-3,5C000400,-0724,0837,12097,026.7,045.4,0.258,756.7,01.16,0.508
2016-03-02 03:00:00,1704E-3,5C000400,-0724,0837,12188,026.7,045.4,0.257,756.7,01.16,0.508
2016-03-02 03:01:00,1730E-3,5C000400,-0724,0837,12108,026.7,045.4,0.258,756.7,01.16,0.508
2016-03-02 03:02:00,1802E-3,5C000400,-0724,0837,12170,026.8,045.4,0.257,756.7,01.16,0.508
2016-03-02 03:03:00,1710E-3,5C000400,-0724,0837,12244,026.8,045.4,0.258,756.7,01.16,0.508
2016-03-02 03:04:00,1782E-3,5C000400,-0724,0837,12273,026.8,045.4,0.258,756.7,01.16,0.508
2016-03-02 03:05:00,1756E-3,5C000400,-0724,0837,12130,026.7,045.4,0.258,756.7,01.16,0.508
2016-03-02 03:06:00,1747E-3,5C000400,-0724,0836,12120,026.8,045.4,0.258,756.7,01.16,0.508
2016-03-02 03:07:00,1783E-3,5C000400,-0724,0836,12025,026.8,045.4,0.257,756.7,01.16,0.508
2016-03-02 03:08:00,1766E-3,5C000400,-0724,0836,12215,026.8,045.4,0.258,756.7,01.16,0.508
2016-03-02 03:09:00,1758E-3,5C000400,-0724,0836,12075,026.8,045.4,0.258,756.6,01.16,0.508
2016-03-02 03:10:00,1827E-3,5C000400,-0724,0836,11942,026.8,045.4,0.257,756.6,01.16,0.508
2016-03-02 03:11:00,1754E-3,5C000400,-0724,0837,12071,026.8,045.4,0.258,756.6,01.16,0.508
2016-03-02 03:12:00,1678E-3,5C000400,-0724,0836,12196,026.8,045.4,0.258,756.6,01.16,0.508
2016-03-02 03:13:00,1798E-3,5C000400,-0724,0837,12027,026.8,045.4,0.258,756.6,01.16,0.508
2016-03-02 03:14:00,1710E-3,5C000400,-0724,0837,12261,026.8,045.4,0.258,756.6,01.16,0.508
2016-03-02 03:15:00,1790E-3,5C000400,-0724,0836,12167,026.8,045.4,0.257,756.6,01.16,0.508
2016-03-02 03:16:00,1746E-3,5C000400,-0724,0837,12072,026.8,045.4,0.258,756.6,01.16,0.508
2016-03-02 03:17:00,1784E-3,5C000400,-0724,0836,12141,026.8,045.4,0.258,756.6,01.16,0.508
2016-03-02 03:18:00,1735E-3,5C000400,-0724,0837,12129,026.8,045.4,0.258,756.6,01.16,0.508
2016-03-02 03:19:00,1734E-3,5C000400,-0724,0837,12193,026.8,045.4,0.258,756.6,01.16,0.508
2016-03-02 03:20:00,1693E-3,5C000400,-0724,0837,12212,026.8,045.4,0.257,756.6,01.16,0.508
2016-03-02 03:21:00,1891E-3,5C000400,-0724,0836,12131,026.8,045.4,0.258,756.6,01.16,0.508
2016-03-02 03:22:00,1797E-3,5C000400,-0724,0837,12190,026.8,045.4,0.257,756.6,01.16,0.508
2016-03-02 03:23:00,1715E-3,5C000400,-0724,0837,12124,026.8,045.4,0.258,756.6,01.16,0.508
2016-03-02 03:24:00,1787E-3,5C000400,-0724,0837,12045,026.8,045.4,0.257,756.6,01.16,0.508
2016-03-02 03:25:00,1840E-3,5C000400,-0724,0836,12202,026.8,045.4,0.258,756.7,01.16,0.508
2016-03-02 03:26:00,1761E-3,5C000400,-0724,0837,12023,026.8,045.4,0.257,756.7,01.16,0.508
2016-03-02 03:27:00,1785E-3,5C000400,-0724,0836,11989,026.8,045.4,0.258,756.6,01.16,0.508
2016-03-02 03:28:00,1680E-3,5C000400,-0724,0836,11972,026.8,045.4,0.257,756.7,01.16,0.508
2016-03-02 03:29:00,1699E-3,5C000400,-0724,0837,12293,026.8,045.4,0.258,756.7,01.16,0.508
2016-03-02 03:30:00,1696E-3,5C000400,-0724,0836,11965,026.8,045.4,0.258,756.7,01.16,0.508
2016-03-02 03:31:00,1819E-3,5C000400,-0724,0836,11858,026.8,045.4,0.257,756.7,01.16,0.508
2016-03-02 03:32:00,1759E-3,5C000400,-0724,0836,12113,026.8,045.4,0.258,756.7,01.16,0.508
2016-03-02 03:33:00,1787E-3,5C000400,-0724,0836,12157,026.9,045.4,0.257,756.7,01.16,0.508
2016-03-02 03:34:00,1756E-3,5C000400,-0724,0836,12042,026.9,045.4,0.258,756.7,01.16,0.508
2016-03-02 03:35:00,1874E-3,5C000400,-0724,0837,12139,026.8,045.4,0.258,756.7,01.16,0.508
2016-03-02 03:36:00,1757E-3,5C000400,-0724,0837,12104,026.9,045.4,0.257,756.7,01.16,0.508
2016-03-02 03:37:00,1830E-3,5C000400,-0724,0837,12051,026.9,045.4,0.258,756.7,01.16,0.508
2016-03-02 03:38:00,1781E-3,5C000400,-0724,0836,12074,026.9,045.4,0.257,756.7,01.16,0.508
2016-03-02 03:39:00,1754E-3,5C000400,-0724,0837,12274,026.9,045.4,0.258,756.7,01.16,0.508
2016-03-02 03:40:00,1821E-3,5C000400,-0724,0837,12072,026.9,045.4,0.257,756.7,01.16,0.508
2016-03-02 03:41:00,1803E-3,5C000400,-0724,0837,12236,026.9,045.4,0.258,756.7,01.16,0.508
2016-03-02 03:42:00,1765E-3,5C000400,-0724,0838,12240,026.9,045.4,0.258,756.6,01.16,0.508
2016-03-02 03:43:00,1694E-3,5C000400,-0724,0837,12031,026.9,045.4,0.258,756.6,01.16,0.508
2016-03-02 03:44:00,1834E-3,5C000400,-0724,0837,12214,026.9,045.4,0.258,756.6,01.16,0.508
2016-03-02 03:45:00,1801E-3,5C000400,-0724,0836,12053,026.9,045.4,0.257,756.6,01.16,0.508
2016-03-02 03:46:00,1846E-3,5C000400,-0724,0837,12115,026.9,045.4,0.257,756.7,01.16,0.508
2016-03-02 03:47:00,1692E-3,5C000400,-0724,0836,12094,026.9,045.4,0.258,756.7,01.16,0.508
2016-03-02 03:48:00,1764E-3,5C000400,-0724,0836,12129,026.9,045.4,0.257,756.7,01.16,0.508
2016-03-02 03:49:00,1831E-3,5C000400,-0724,0837,12142,026.9,045.4,0.258,756.7,01.16,0.508
2016-03-02 03:50:00,1741E-3,5C000400,-0724,0837,12286,026.9,045.4,0.258,756.7,01.16,0.508
2016-03-02 03:51:00,1762E-3,5C000400,-0724,0837,12143,026.9,045.4,0.257,756.7,01.16,0.508
2016-03-02 03:52:00,1677E-3,5C000400,-0724,0837,12212,026.9,045.4,0.258,756.7,01.16,0.508
2016-03-02 03:53:00,1843E-3,5C000400,-0724,0837,12140,026.9,045.4,0.257,756.7,01.16,0.508
2016-03-02 03:54:00,1728E-3,5C000400,-0724,0836,12224,027.0,045.4,0.257,756.7,01.16,0.508
2016-03-02 03:55:00,1908E-3,5C000400,-0724,0837,12205,026.9,045.4,0.258,756.7,01.16,0.508
2016-03-02 03:56:00,1669E-3,5C000400,-0724,0836,12164,027.0,045.4,0.257,756.7,01.16,0.508
2016-03-02 03:57:00,1732E-3,5C000400,-0724,0836,12136,027.0,045.4,0.258,756.7,01.16,0.508
2016-03-02 03:58:00,1771E-3,5C000400,-0724,0837,12165,026.9,045.4,0.257,756.7,01.16,0.508
2016-03-02 03:59:00,1712E-3,5C000400,-0724,0837,12293,027.0,045.4,0.258,756.7,01.16,0.508
2016-03-02 04:00:00,1805E-3,5C000400,-0724,0837,12195,026.9,045.4,0.257,756.7,01.16,0.508
2016-03-02 04:01:00,1826E-3,5C000400,-0724,0837,12186,027.0,045.4,0.257,756.7,01.16,0.508
2016-03-02 04:02:00,1741E-3,5C000400,-0724,0836,12076,027.0,045.4,0.257,756.7,01.16,0.508
2016-03-02 04:03:00,1709E-3,5C000400,-0724,0836,12113,027.0,045.4,0.257,756.7,01.16,0.508
2016-03-02 04:04:00,1736E-3,5C000400,-0724,0837,12126,027.0,045.4,0.257,756.7,01.16,0.508
2016-03-02 04:05:00,1705E-3,5C000400,-0724,0836,12132,027.0,045.4,0.257,756.7,01.16,0.508
2016-03-02 04:06:00,1812E-3,5C000400,-0724,0838,12123,027.0,045.4,0.257,756.7,01.16,0.508
2016-03-02 04:07:00,1746E-3,5C000400,-0724,0837,12019,027.0,045.4,0.257,756.7,01.16,0.508
2016-03-02 04:08:00,1752E-3,5C000400,-0724,0836,12114,027.0,045.4,0.257,756.7,01.16,0.508
2016-03-02 04:09:00,1802E-3,5C000400,-0724,0836,12188,027.0,045.4,0.258,756.7,01.16,0.508
2016-03-02 04:10:00,1782E-3,5C000400,-0724,0836,12244,027.0,045.4,0.257,756.7,01.16,0.508
2016-03-02 04:11:00,1816E-3,5C000400,-0724,0837,11973,027.0,045.4,0.257,756.7,01.16,0.508
2016-03-02 04:12:00,1677E-3,5C000400,-0724,0836,12102,027.0,045.4,0.257,756.7,01.16,0.508
2016-03-02 04:13:00,1824E-3,5C000400,-0724,0837,12160,027.0,045.4,0.257,756.7,01.16,0.508
2016-03-02 04:14:00,1832E-3,5C000400,-0724,0837,12101,027.0,045.4,0.257,756.7,01.16,0.508
2016-03-02 04:15:00,1760E-3,5C000400,-0724,0837,12165,027.0,045.4,0.257,756.7,01.16,0.508
2016-03-02 04:16:00,1851E-3,5C000400,-0724,0837,12126,027.0,045.4,0.257,756.7,01.16,0.508
2016-03-02 04:17:00,1658E-3,5C000400,-0724,0836,12236,027.0,045.4,0.257,756.7,01.16,0.508
2016-03-02 04:18:00,1651E-3,5C000400,-0724,0837,12222,027.0,045.4,0.257,756.7,01.16,0.508
2016-03-02 04:19:00,1930E-3,5C000400,-0724,0837,12080,027.0,045.4,0.257,756.7,01.16,0.508
2016-03-02 04:20:00,1867E-3,5C000400,-0724,0837,12068,027.0,045.4,0.257,756.7,01.16,0.508